Time,TemperatureF,DewpointF,PressureIn,WindDirection,WindDirectionDegrees,WindSpeedMPH,WindSpeedGustMPH,Humidity,HourlyPrecipIn,Conditions,Clouds,dailyrainin,SoftwareType,DateUTC
2013-08-15 00:12:00,74.0,73.0,-100.00,North,-999,-999.0,-999.0,96,0.00,,,0.48,,2013-08-15 05:12:00,
2013-08-15 00:22:00,74.0,73.0,-100.00,North,-999,-999.0,-999.0,96,0.00,,,0.48,,2013-08-15 05:22:00,
2013-08-15 00:42:00,73.0,73.0,-100.00,North,-999,-999.0,-999.0,100,0.16,,,0.64,,2013-08-15 05:42:00,
2013-08-15 00:52:00,72.0,72.0,-100.00,North,-999,-999.0,-999.0,100,0.31,,,0.79,,2013-08-15 05:52:00,
2013-08-15 01:02:00,72.0,72.0,-100.00,North,-999,-999.0,-999.0,100,0.31,,,0.79,,2013-08-15 06:02:00,
2013-08-15 01:11:00,72.0,72.0,-100.00,North,-999,-999.0,-999.0,100,0.31,,,0.79,,2013-08-15 06:11:00,
2013-08-15 01:21:00,72.0,72.0,-100.00,North,-999,-999.0,-999.0,100,0.31,,,0.79,,2013-08-15 06:21:00,
2013-08-15 01:52:00,72.0,72.0,-100.00,North,-999,-999.0,-999.0,100,0.01,,,0.80,,2013-08-15 06:52:00,
2013-08-15 02:11:00,72.0,72.0,-100.00,North,-999,-999.0,-999.0,100,-99.99,,,0.80,,2013-08-15 07:11:00,
2013-08-15 02:21:00,72.0,72.0,-100.00,North,-999,-999.0,-999.0,100,-99.99,,,0.80,,2013-08-15 07:21:00,
2013-08-15 02:32:00,72.0,72.0,-100.00,North,-999,-999.0,-999.0,100,-99.99,,,0.80,,2013-08-15 07:32:00,
2013-08-15 02:52:00,72.0,72.0,-100.00,North,-999,-999.0,-999.0,100,0.00,,,0.80,,2013-08-15 07:52:00,
2013-08-15 03:21:00,71.0,71.0,-100.00,North,-999,-999.0,-999.0,100,-99.99,,,0.80,,2013-08-15 08:21:00,
2013-08-15 03:52:00,71.0,71.0,-100.00,North,-999,-999.0,-999.0,100,0.00,,,0.80,,2013-08-15 08:52:00,
2013-08-15 04:11:00,71.0,71.0,-100.00,North,-999,-999.0,-999.0,100,0.00,,,0.80,,2013-08-15 09:11:00,
2013-08-15 04:21:00,71.0,71.0,-100.00,North,-999,-999.0,-999.0,100,0.00,,,0.80,,2013-08-15 09:21:00,
2013-08-15 04:53:00,70.0,70.0,-100.00,North,-999,-999.0,-999.0,100,0.00,,,0.80,,2013-08-15 09:53:00,
2013-08-15 05:12:00,70.0,70.0,-100.00,North,-999,-999.0,-999.0,100,0.00,,,0.80,,2013-08-15 10:12:00,
2013-08-15 05:22:00,70.0,70.0,-100.00,North,-999,-999.0,-999.0,100,0.00,,,0.80,,2013-08-15 10:22:00,
2013-08-15 05:52:00,70.0,70.0,-100.00,North,-999,-999.0,-999.0,100,0.00,,,-99.99,,2013-08-15 10:52:00,
2013-08-15 06:02:00,70.0,70.0,-100.00,North,-999,-999.0,-999.0,100,0.00,,,-99.99,,2013-08-15 11:02:00,
2013-08-15 06:22:00,70.0,70.0,-100.00,North,-999,-999.0,-999.0,100,-99.99,,,0.80,,2013-08-15 11:22:00,
2013-08-15 06:51:00,71.0,71.0,-100.00,North,-999,-999.0,-999.0,100,0.00,,,0.80,,2013-08-15 11:51:00,
2013-08-15 07:01:00,71.0,71.0,-100.00,North,-999,-999.0,-999.0,100,0.00,,,0.80,,2013-08-15 12:01:00,
2013-08-15 07:21:00,71.0,71.0,-100.00,North,-999,-999.0,-999.0,100,0.00,,,0.80,,2013-08-15 12:21:00,
2013-08-15 07:42:00,71.0,71.0,-100.00,North,-999,-999.0,-999.0,100,0.00,,,0.80,,2013-08-15 12:42:00,
2013-08-15 07:51:00,71.0,71.0,-100.00,North,-999,-999.0,-999.0,100,0.00,,,0.80,,2013-08-15 12:51:00,
2013-08-15 08:01:00,71.0,71.0,-100.00,North,-999,-999.0,-999.0,100,0.00,,,0.80,,2013-08-15 13:01:00,
2013-08-15 08:21:00,72.0,72.0,-100.00,North,-999,-999.0,-999.0,100,0.00,,,0.80,,2013-08-15 13:21:00,
2013-08-15 08:52:00,72.0,72.0,-100.00,North,-999,-999.0,-999.0,100,-99.99,,,0.80,,2013-08-15 13:52:00,
2013-08-15 09:22:00,72.0,72.0,-100.00,North,-999,-999.0,-999.0,100,0.00,,,0.80,,2013-08-15 14:22:00,
2013-08-15 09:53:00,73.0,73.0,-100.00,North,-999,-999.0,-999.0,100,0.00,,,0.80,,2013-08-15 14:53:00,
2013-08-15 10:23:00,74.0,74.0,-100.00,North,-999,-999.0,-999.0,100,0.00,,,-99.99,,2013-08-15 15:23:00,
2013-08-15 10:34:00,74.0,74.0,-100.00,North,-999,-999.0,-999.0,100,0.00,,,-99.99,,2013-08-15 15:34:00,
2013-08-15 10:54:00,76.0,74.0,-100.00,North,-999,-999.0,-999.0,94,0.00,,,0.80,,2013-08-15 15:54:00,
2013-08-15 11:14:00,77.0,73.0,-100.00,North,-999,-999.0,-999.0,89,0.00,,,0.80,,2013-08-15 16:14:00,
2013-08-15 11:26:00,77.0,73.0,-100.00,North,-999,-999.0,-999.0,89,0.00,,,0.80,,2013-08-15 16:26:00,
2013-08-15 11:55:00,77.0,71.0,-100.00,North,-999,-999.0,-999.0,82,0.00,,,0.80,,2013-08-15 16:55:00,
2013-08-15 12:30:00,79.0,-99.9,-100.00,North,-999,-999.0,-999.0,78,-99.99,,,0.80,,2013-08-15 17:30:00,
2013-08-15 13:25:00,81.0,72.0,-100.00,North,-999,-999.0,-999.0,73,0.00,,,0.80,,2013-08-15 18:25:00,
2013-08-15 14:17:00,82.0,71.0,-100.00,North,-999,-999.0,-999.0,69,0.00,,,0.80,,2013-08-15 19:17:00,
2013-08-15 15:12:00,82.0,71.0,-100.00,North,-999,-999.0,-999.0,68,0.00,,,0.80,,2013-08-15 20:12:00,
2013-08-15 16:49:00,84.0,71.0,-100.00,North,-999,-999.0,-999.0,65,0.00,,,0.53,,2013-08-15 21:49:00,
2013-08-15 16:57:00,84.0,71.0,-100.00,North,-999,-999.0,-999.0,65,0.00,,,0.53,,2013-08-15 21:57:00,
2013-08-15 17:29:00,84.0,72.0,-100.00,North,-999,-999.0,-999.0,66,0.00,,,0.36,,2013-08-15 22:29:00,
2013-08-15 17:58:00,83.0,72.0,-100.00,North,-999,-999.0,-999.0,70,0.00,,,0.32,,2013-08-15 22:58:00,
2013-08-15 18:55:00,80.0,74.0,-100.00,North,-999,-999.0,-999.0,82,0.00,,,0.32,,2013-08-15 23:55:00,
2013-08-15 19:24:00,76.0,75.0,-100.00,North,-999,-999.0,-999.0,95,0.01,,,0.33,,2013-08-16 00:24:00,
2013-08-15 19:38:00,76.0,75.0,-100.00,North,-999,-999.0,-999.0,95,0.01,,,0.33,,2013-08-16 00:38:00,
2013-08-15 19:46:00,76.0,75.0,-100.00,North,-999,-999.0,-999.0,95,0.01,,,0.33,,2013-08-16 00:46:00,
2013-08-15 19:52:00,76.0,75.0,-100.00,North,-999,-999.0,-999.0,95,0.01,,,0.33,,2013-08-16 00:52:00,
2013-08-15 20:26:00,70.0,70.0,-100.00,North,-999,-999.0,-999.0,100,0.15,,,0.48,,2013-08-16 01:26:00,
2013-08-15 20:54:00,70.0,70.0,-100.00,North,-999,-999.0,-999.0,100,0.04,,,0.49,,2013-08-16 01:54:00,
2013-08-15 21:21:00,70.0,70.0,-100.00,North,-999,-999.0,-999.0,100,0.01,,,0.49,,2013-08-16 02:21:00,
2013-08-15 21:52:00,70.0,70.0,-100.00,North,-999,-999.0,-999.0,100,0.00,,,0.49,,2013-08-16 02:52:00,
2013-08-15 22:22:00,70.0,70.0,-100.00,North,-999,-999.0,-999.0,100,0.00,,,-99.99,,2013-08-16 03:22:00,
2013-08-15 22:53:00,71.0,71.0,-100.00,North,-999,-999.0,-999.0,100,0.00,,,0.49,,2013-08-16 03:53:00,
2013-08-15 23:23:00,71.0,71.0,-100.00,North,-999,-999.0,-999.0,100,0.01,,,0.50,,2013-08-16 04:23:00,
2013-08-15 23:53:00,71.0,71.0,-100.00,North,-999,-999.0,-999.0,100,0.01,,,0.50,,2013-08-16 04:53:00,